This is the latest recevied weather packets stored in our database for station/object KF6RAL-6. If no packets are shown the sender has not sent any weather packets the latest 10 day(s).
| Time | Temp. | Humidity | Pressure | Rain* | Wind** | Luminosity | Snow |
|---|---|---|---|---|---|---|---|
| 1777811056 | 12.78° C | 60% | 1013.4 hPa | 0 mm | - | - | - |
| 1777810636 | 12.78° C | 60% | 1013.3 hPa | 0 mm | - | - | - |
| 1777810214 | 12.78° C | 60% | 1013.3 hPa | 0 mm | - | - | - |
| 1777809793 | 12.22° C | 61% | 1013.3 hPa | 0 mm | - | - | - |
| 1777809372 | 12.22° C | 61% | 1013.5 hPa | 0 mm | - | - | - |
| 1777808951 | 11.67° C | 61% | 1013.6 hPa | 0 mm | - | - | - |
| 1777808532 | 12.22° C | 62% | 1013.7 hPa | 0 mm | - | - | - |
| 1777808109 | 12.22° C | 62% | 1013.6 hPa | 0 mm | - | - | - |
| 1777807688 | 12.22° C | 65% | 1013.7 hPa | 0 mm | - | - | - |
| 1777807267 | 11.67° C | 62% | 1013.8 hPa | 0 mm | - | - | - |
| 1777806846 | 11.67° C | 61% | 1013.8 hPa | 0 mm | - | - | - |
| 1777806425 | 11.11° C | 60% | 1013.9 hPa | 0 mm | - | - | - |
| 1777806004 | 12.22° C | 58% | 1014 hPa | 0 mm | - | - | - |
| 1777805583 | 13.33° C | 58% | 1014.4 hPa | 0 mm | - | - | - |
| 1777805162 | 13.89° C | 53% | 1013.6 hPa | 0 mm | - | - | - |
| 1777804741 | 14.44° C | 46% | 1014 hPa | 0 mm | - | - | - |
| 1777804320 | 14.44° C | 42% | 1014.3 hPa | 0 mm | - | - | - |
| 1777803942 | 13.89° C | 38% | 1013.8 hPa | 0 mm | - | - | - |
| 1777803899 | 13.89° C | 38% | 1013.8 hPa | 0 mm | - | - | - |
| 1777803478 | 13.33° C | 42% | 1013.7 hPa | 0 mm | - | - | - |
| 1777803057 | 13.33° C | 47% | 1013.7 hPa | 0 mm | - | - | - |
| 1777802636 | 13.33° C | 48% | 1013.7 hPa | 0 mm | - | - | - |
| 1777802215 | 13.89° C | 46% | 1013.7 hPa | 0 mm | - | - | - |
| 1777801794 | 13.89° C | 48% | 1013.6 hPa | 0 mm | - | - | - |
| 1777801372 | 13.89° C | 48% | 1013.9 hPa | 0 mm | - | - | - |
* Rain latest hour (hover to see other rain measurements)
** Current wind speed in m/s (hover to see current wind gust speed)